[[{"header":{"parameterUnit":"m.s-1","parameterCategory":1,"la1":30.2992,"la2":30.254,"lo1":-89.0895,"lo2":-89.0443,"dy":0.0025,"dx":0.0025,"nx":19,"ny":19,"refTime":"2026-03-21T03:00:00:Z","depth":0,"parameterNumber":2,"parameterNumberName":"U-component_of_WINDS"},"data":[0,0,0,2.9774,2.9777,2.9929,2.9929,3.0131,3.0133,0,0,0,0,0,0,0,0,0,0,0,2.9732,2.9734,2.9774,2.9778,2.9929,2.9929,3.0131,3.0133,0,0,0,0,0,0,0,0,0,0,0,2.9732,2.9733,2.9735,2.9778,2.9929,2.9929,3.013,3.0014,0,0,0,0,0,0,0,0,0,0,2.9865,2.9829,2.9733,2.9735,2.9779,2.9928,2.9929,3.0008,3.0021,3.0065,0,3.0104,0,3.0122,3.0147,3.0147,0,0,0,2.9776,2.9818,2.9856,2.9735,2.9781,2.9928,2.986,3.0015,3.003,3.0083,3.0107,3.0114,3.0125,3.0148,3.0149,3.0409,3.041,0,0,2.9767,2.9761,2.9846,2.9866,2.9841,2.9855,2.9865,3.0024,3.005,3.0108,3.0119,3.0128,3.0149,3.0151,3.0408,3.0409,0,0,0,2.9745,2.9756,2.979,2.9858,2.9884,2.986,2.9871,3.0043,3.0055,3.0121,3.0131,3.0151,3.0153,3.0406,3.0408,3.0467,0,0,0,2.974,2.9742,2.9786,2.9784,2.9882,2.9965,2.9887,3.0044,3.0062,3.013,3.0151,3.0155,3.0405,3.0407,3.0463,3.0497,0,0,0,2.9721,2.974,2.9763,2.9783,2.9848,2.9963,2.9984,3.0048,3.0068,3.0148,3.0156,3.0404,3.0407,3.0459,3.049,3.0565,0,0,0,2.9701,2.9813,2.9764,2.9893,2.9847,2.9997,2.9983,3.0095,3.017,3.0152,3.0405,3.0408,3.0457,3.0486,3.0561,3.0628,3.0655,0,0,2.9839,2.9829,2.9906,2.9867,3.0025,2.9975,3.0143,3.0217,3.0231,3.0349,3.0356,3.0464,3.049,3.0564,3.0806,3.0828,0,0,0,2.9948,3.0003,3.0046,3.0117,3.0176,3.0231,3.028,3.0309,3.041,3.029,3.0511,3.0526,3.057,3.0603,3.0621,3.0661,3.0422,3.0422,3.0422,3.0136,3.0147,3.0276,3.0305,3.0374,3.0425,3.0483,3.0529,3.052,3.0572,3.0608,3.0753,3.0791,3.0805,3.0846,3.0643,3.0643,3.0644,3.0644,3.0342,3.0423,3.0408,3.0527,3.0539,3.064,3.0694,3.0685,3.0782,3.0727,3.0766,3.0707,3.0828,3.0865,3.0648,3.0648,3.0647,3.0646,3.0646,3.0468,3.0508,3.054,3.0645,3.0725,3.0751,3.0846,3.0853,3.086,3.0899,3.0939,3.0938,3.094,3.0917,3.0918,3.0918,3.0919,3.0919,3.0919,3.0586,3.062,3.0698,3.0771,3.0819,3.0882,3.0935,3.0983,3.1038,3.1036,3.1036,3.1024,3.0837,3.0791,3.0927,3.0926,3.0925,3.0924,3.0924,3.0793,3.0748,3.0868,3.0916,3.1004,3.1085,3.1092,3.1189,3.1229,3.1277,3.1256,3.1116,3.1107,3.1093,3.1055,3.1251,3.1251,3.1251,3.1251,3.0901,3.0897,3.1023,3.1099,3.1174,3.1194,3.1333,3.1376,3.1414,3.1441,3.1413,3.1363,3.1348,3.1348,3.1328,3.1293,3.1546,3.1546,3.1546,3.103,3.1034,3.115,3.1185,3.1255,3.1316,3.1447,3.1538,3.1571,3.1558,3.1462,3.145,3.1369,3.1342,3.1328,3.1297,3.1233,0,0]},{"header":{"parameterUnit":"m.s-1","parameterCategory":1,"la1":30.2992,"la2":30.254,"lo1":-89.0895,"lo2":-89.0443,"dy":0.0025,"dx":0.0025,"nx":19,"ny":19,"refTime":"2026-03-21T03:00:00:Z","depth":0,"parameterNumber":3,"parameterNumberName":"V-component_of_WINDS"},"data":[0,0,0,4.0944,4.0949,4.1205,4.1206,4.1532,4.1534,0,0,0,0,0,0,0,0,0,0,0,4.0866,4.0868,4.0944,4.095,4.1205,4.1206,4.1531,4.1534,0,0,0,0,0,0,0,0,0,0,0,4.0865,4.0868,4.087,4.0951,4.1205,4.1206,4.153,4.1338,0,0,0,0,0,0,0,0,0,0,4.1091,4.1016,4.0867,4.087,4.0952,4.1205,4.1206,4.1329,4.135,4.1415,0,4.147,0,4.1507,4.1556,4.1557,0,0,0,4.0952,4.0999,4.1069,4.0871,4.0955,4.1204,4.1091,4.1341,4.1365,4.1443,4.1475,4.1487,4.1513,4.1558,4.156,4.1922,4.1923,0,0,4.0938,4.0911,4.1053,4.1085,4.1044,4.1082,4.1098,4.1356,4.1389,4.1476,4.1495,4.1518,4.156,4.1563,4.192,4.1922,0,0,0,4.0896,4.0901,4.0966,4.1071,4.1117,4.109,4.1108,4.1378,4.1401,4.1498,4.1522,4.1562,4.1566,4.1919,4.1921,4.1975,0,0,0,4.0888,4.0877,4.096,4.0946,4.1112,4.1251,4.1125,4.1383,4.1413,4.152,4.1562,4.1569,4.1917,4.192,4.197,4.2006,0,0,0,4.085,4.0873,4.0909,4.0944,4.1053,4.1247,4.1285,4.139,4.1428,4.1557,4.157,4.1916,4.1919,4.1966,4.1999,4.2095,0,0,0,4.0803,4.0953,4.0909,4.1085,4.105,4.1277,4.1284,4.1454,4.1572,4.1564,4.1917,4.1921,4.1964,4.1994,4.209,4.2173,4.2205,0,0,4.0977,4.0973,4.1079,4.1047,4.1275,4.1241,4.1478,4.1611,4.1648,4.1829,4.1838,4.1972,4.1998,4.2094,4.2387,4.2412,0,0,0,4.1125,4.1201,4.1267,4.1378,4.1482,4.1576,4.1675,4.1724,4.1879,4.1735,4.2033,4.2049,4.2107,4.2148,4.2169,4.2221,4.1938,4.1938,4.1937,4.1335,4.1373,4.1552,4.1622,4.1728,4.1829,4.1921,4.2005,4.2012,4.2082,4.2137,4.231,4.2357,4.2373,4.2427,4.2182,4.2182,4.2182,4.2183,4.1595,4.171,4.1716,4.1892,4.1932,4.2081,4.2184,4.2185,4.233,4.2271,4.2324,4.2258,4.2399,4.2448,4.2187,4.2186,4.2186,4.2185,4.2185,4.1739,4.1801,4.1858,4.2022,4.2144,4.2209,4.2349,4.238,4.2411,4.2462,4.2525,4.2525,4.253,4.249,4.249,4.2491,4.2491,4.2492,4.2492,4.1866,4.1929,4.2042,4.2166,4.2241,4.2345,4.2447,4.2523,4.2615,4.2628,4.2628,4.2631,4.2404,4.2348,4.2502,4.25,4.2499,4.2498,4.2497,4.2121,4.2068,4.2243,4.2318,4.2467,4.2588,4.2625,4.2777,4.2844,4.2912,4.2903,4.2729,4.2727,4.2711,4.2665,4.2892,4.2892,4.2892,4.2892,4.2244,4.2245,4.2431,4.2551,4.2671,4.2723,4.2921,4.3003,4.3079,4.3124,4.3095,4.3035,4.3017,4.3026,4.3003,4.2961,4.3258,4.3258,4.3259,4.2403,4.2418,4.258,4.2653,4.2771,4.2873,4.3061,4.3199,4.3275,4.3274,4.316,4.3144,4.3049,4.3015,4.3014,4.2977,4.29,0,0]}]]